sat.trackr.live / text

‹ back to catalog

STARLINK-4097

NORAD 53265 · 2022-086Z

PAYLOAD ACTIVE UNKNOWN

§ Identity

Operator
Country
US
Launch date
2022-07-24
Launch site
AFETR
Launch vehicle
Mass (kg)
RCS (m²)

Purposes: comms

External: N2YO · Heavens-Above · Gunter

§ Orbital elements

Epoch: 2026-05-25T03:58:09.770304Z

Period
95.44 min
Inclination
53.2131°
Eccentricity
0.0001037
Mean motion
15.08834163 rev/d
Perigee alt
539.0 km
Apogee alt
540.5 km
Semi-major
6,917.9 km
B*
5.8515e-5
RAAN
210.8091°
Arg perigee
83.4359°
Mean anomaly
276.6751°
Rev number
21,261

§ Raw data

STARLINK-40971 53265U 22086Z   26145.16539086  .00000643  00000+0  58515-4 0  99952 53265  53.2131 210.8091 0001037  83.4359 276.6751 15.08834163212617

JSON: /api/v1/satellites/53265 · /tle

For live sub-satellite position, see the globe view (requires WebGL).

§ Visibility from observer

Set your observer location to see the next 7 days of passes ≥ 10°. The values pass through the URL so the page stays shareable.

No JS? Fill the form by hand. The geolocation button needs JavaScript.